Wind_Speed
18 18 18 18 19 19 19 20 20 20 21 21 21 21 21 21 21 21 21 21 21 21 21 21 21 21 21 21 21 20 20 19 19 20 19 19 19 20
19 19 19 19 20 21 21 21 21 21 21 22 22 22 23 23 23 22 22 22 22 22 21 21 21 21 22 22 22 21 21 21 21 20 20 20 20 20
21 21 21 21 21 22 22 22 23 22 22 22 23 23 24 24 23 23 23 23 22 22 22 22 22 22 22 22 22 22 22 22 22 21 20 20 20 20
22 22 22 22 23 23 23 23 22 22 22 22 23 24 24 24 24 24 23 23 23 23 22 22 23 22 21 21 22 23 23 22 22 21 20 20 20 20
22 23 23 22 22 23 23 23 22 22 23 23 24 24 24 25 25 25 24 24 24 24 23 23 23 22 22 22 22 22 23 22 21 21 20 20 20 20
21 21 22 22 22 22 22 22 22 23 24 24 24 24 25 24 25 25 25 25 24 24 24 24 24 23 22 22 22 22 22 22 22 22 21 21 21 21
21 21 21 21 21 21 22 22 23 24 24 23 24 24 24 25 24 25 24 25 25 24 24 24 24 24 23 23 22 22 22 22 23 23 22 22 21 21
22 22 22 21 20 21 22 22 23 24 24 24 24 25 25 25 25 25 24 24 25 25 25 25 24 24 24 23 23 23 23 23 23 23 24 23 23 22
22 23 23 22 21 21 22 22 23 23 23 23 24 24 24 25 25 25 25 24 24 24 24 25 25 24 24 23 23 23 23 23 23 23 24 24 23 23
22 23 23 22 22 23 23 23 23 23 23 24 25 25 24 24 24 24 24 23 23 24 24 24 25 25 24 24 24 23 23 23 22 23 23 23 23 23
22 23 23 23 23 24 24 24 24 24 24 25 25 24 24 24 24 24 23 23 23 24 25 24 24 25 25 25 24 24 23 23 23 23 23 22 22 23
23 23 24 24 24 24 24 24 24 24 24 25 24 25 24 24 24 23 23 23 22 22 24 24 24 24 25 25 24 24 24 24 24 23 23 22 22 23
24 24 24 24 25 25 25 24 24 24 24 24 24 23 23 23 23 23 22 22 22 21 22 22 23 23 24 24 24 24 23 24 24 24 23 23 23 23
24 25 25 24 24 24 24 24 24 24 24 23 23 23 22 23 23 22 21 21 21 21 21 21 22 22 22 23 24 24 24 23 24 24 23 23 23 23
24 24 24 24 23 23 24 24 24 23 23 22 22 23 23 23 23 22 22 21 21 21 22 21 20 21 21 22 22 23 24 24 24 24 24 23 23 23
25 24 24 24 24 24 24 23 23 23 22 22 22 22 23 23 23 23 22 22 21 21 21 20 20 20 20 21 22 22 23 24 24 23 23 23 23 23
25 25 24 23 24 24 24 24 23 22 22 21 21 22 22 22 21 21 21 22 21 20 21 20 20 20 20 20 20 21 22 23 24 24 24 23 23 24
24 24 23 23 23 24 24 24 23 22 21 21 21 21 21 21 20 20 20 20 20 20 20 20 21 20 20 20 20 20 21 22 23 23 23 22 22 22
25 24 23 23 23 24 24 24 23 22 22 21 21 21 21 20 20 20 20 20 20 20 20 20 20 20 21 20 20 20 20 21 22 22 22 22 22 22
23 22 22 22 23 23 23 22 22 22 22 21 21 21 20 21 21 21 20 20 20 20 20 20 20 20 21 21 21 21 21 21 21 22 22 22 22 22
22 22 22 21 22 23 22 22 21 21 21 21 21 22 22 22 22 21 21 21 21 20 20 20 21 21 21 21 21 20 20 20 20 21 22 22 22 22
23 23 22 21 22 22 23 23 22 21 21 20 20 21 22 22 22 21 21 21 21 21 22 22 22 22 22 22 22 22 21 21 22 22 22 22 23 23
22 22 22 22 22 23 23 23 23 21 21 20 20 21 21 21 22 22 22 22 22 22 23 23 23 22 22 22 23 22 21 22 22 22 23 23 24 24
Wind_Direction
271 271 271 271 270 270 269 267 265 266 269 269 268 268 269 270 271 272 272 272 272 272 271 272 274 272 271 270 270 270 270 271 270 266 264 263 263 260
270 271 272 271 270 270 269 268 266 266 266 267 267 268 269 270 271 271 271 271 270 271 272 274 275 273 270 268 268 267 268 268 268 267 267 266 265 262
272 272 273 273 271 270 270 270 268 267 267 268 269 269 269 269 269 270 270 270 271 272 273 273 273 274 270 268 268 266 267 267 265 266 266 265 265 264
274 276 276 275 274 273 271 271 270 268 268 269 271 271 270 269 268 269 271 271 270 270 271 272 273 273 270 269 269 267 266 266 265 265 264 263 263 263
279 278 276 276 277 275 273 271 270 269 269 270 271 271 270 270 269 269 270 270 270 270 270 272 273 271 269 270 270 268 266 264 263 261 260 260 260 262
284 282 279 276 275 274 273 272 272 271 271 270 269 270 270 271 271 271 270 269 269 269 269 270 272 270 270 269 268 267 266 262 260 258 257 258 259 262
284 284 282 278 277 275 274 274 273 272 272 271 269 270 270 271 273 273 271 270 269 268 268 269 269 268 267 267 266 265 264 262 259 257 256 258 259 262
283 282 280 280 281 278 276 275 275 273 272 272 272 272 273 273 274 274 272 271 270 268 269 270 269 267 267 266 266 264 262 260 260 258 256 257 260 262
284 283 280 280 280 280 278 275 275 274 273 273 273 274 274 275 275 275 274 272 270 268 268 269 269 268 266 265 265 265 263 261 260 259 257 257 259 261
283 283 282 281 281 281 279 277 275 275 274 273 273 272 272 273 275 276 274 272 271 269 269 269 267 267 264 264 264 263 260 260 259 258 257 257 257 259
283 282 281 281 280 280 279 278 277 277 277 275 273 272 272 272 273 273 273 273 272 271 271 269 268 266 264 265 264 262 259 258 257 258 257 257 259 260
281 281 281 280 280 280 279 278 278 277 276 274 273 272 271 271 272 271 271 271 271 271 271 270 269 266 264 263 261 261 259 258 257 258 258 257 258 259
279 279 280 279 279 279 279 277 276 276 274 272 271 272 272 272 272 271 270 270 271 273 271 270 270 267 265 262 259 259 259 257 257 258 258 257 258 258
284 281 280 278 277 278 278 277 277 277 274 270 270 271 271 272 272 270 270 270 272 273 271 270 269 267 264 262 260 260 260 260 258 258 259 258 258 258
286 281 280 279 277 277 277 278 277 274 271 269 269 269 270 271 271 270 267 270 273 273 270 269 270 269 265 263 261 260 259 259 259 259 258 257 259 258
288 283 280 279 277 276 275 276 275 272 270 269 268 268 270 272 271 269 268 270 274 274 271 271 272 270 267 263 262 261 260 258 258 259 260 258 257 258
287 284 281 280 278 277 275 274 275 275 271 268 268 269 270 271 272 272 272 273 273 273 272 270 271 271 270 268 266 264 262 259 258 258 259 258 256 257
286 285 282 278 276 275 274 273 274 274 270 268 268 269 268 269 271 272 273 273 272 272 272 270 270 270 270 271 270 266 263 260 257 256 257 256 256 258
285 283 282 277 275 276 275 273 272 270 268 268 267 269 269 268 271 272 273 273 272 271 273 272 271 269 269 270 272 271 266 262 258 256 256 256 258 259
284 280 280 278 276 276 277 275 274 271 268 267 267 267 269 270 270 272 272 271 271 271 272 272 273 270 268 268 270 272 268 263 260 258 257 259 259 260
282 279 278 277 277 275 275 275 275 272 268 266 267 268 270 272 271 271 272 270 270 269 270 272 272 270 268 268 268 269 269 266 262 261 260 260 261 262
280 278 276 275 276 274 273 273 273 271 267 266 269 270 272 274 273 273 272 271 271 269 269 270 271 270 268 267 268 269 267 265 264 265 264 264 264 265
281 278 274 273 273 274 275 274 273 270 267 267 268 270 272 272 272 272 272 272 271 269 270 271 271 270 268 268 269 268 266 264 263 263 264 264 265 267
Height
5835 5835 5834 5834 5834 5833 5833 5833 5834 5833 5833 5833 5832 5832 5832 5832 5832 5832 5832 5832 5832 5832 5832 5832 5832 5831 5831 5832 5832 5831 5831 5832 5832 5832 5832 5833 5833 5834
5829 5829 5829 5828 5828 5828 5827 5827 5827 5827 5827 5826 5826 5826 5826 5826 5826 5826 5826 5826 5826 5826 5826 5826 5825 5825 5825 5826 5826 5826 5826 5826 5826 5827 5827 5827 5828 5828
5823 5823 5823 5822 5821 5821 5821 5820 5820 5820 5820 5820 5819 5819 5819 5819 5819 5819 5819 5819 5819 5819 5819 5819 5819 5819 5819 5819 5819 5820 5820 5820 5820 5821 5821 5821 5822 5823
5817 5816 5816 5815 5815 5814 5814 5814 5813 5813 5813 5814 5813 5813 5812 5812 5812 5812 5812 5813 5813 5813 5813 5813 5813 5813 5812 5813 5813 5813 5813 5814 5814 5814 5815 5816 5816 5817
5811 5810 5809 5809 5808 5807 5807 5807 5806 5806 5806 5807 5806 5806 5805 5805 5805 5805 5806 5806 5806 5806 5806 5806 5806 5806 5806 5806 5806 5806 5807 5807 5808 5808 5809 5809 5810 5811
5804 5804 5803 5802 5801 5800 5800 5800 5800 5799 5799 5799 5799 5799 5799 5798 5798 5799 5798 5798 5799 5799 5799 5799 5799 5799 5799 5799 5800 5800 5800 5801 5801 5802 5803 5803 5804 5804
5798 5797 5796 5795 5794 5794 5793 5793 5793 5792 5792 5792 5792 5792 5792 5792 5791 5791 5791 5791 5791 5792 5792 5792 5792 5793 5793 5793 5793 5793 5793 5794 5795 5795 5796 5797 5798 5799
5792 5791 5790 5789 5788 5787 5787 5786 5786 5785 5785 5785 5785 5785 5785 5784 5784 5784 5784 5784 5785 5785 5785 5785 5785 5786 5785 5786 5786 5786 5786 5787 5788 5789 5790 5790 5791 5792
5786 5785 5783 5783 5781 5781 5780 5779 5778 5778 5778 5778 5778 5778 5778 5777 5777 5777 5777 5777 5777 5777 5778 5778 5778 5778 5778 5778 5778 5779 5779 5780 5781 5781 5782 5783 5784 5785
5778 5777 5776 5775 5774 5773 5773 5772 5771 5770 5770 5771 5771 5770 5770 5770 5770 5770 5770 5770 5770 5770 5770 5771 5770 5771 5771 5770 5771 5771 5772 5773 5773 5774 5775 5776 5777 5777
5771 5770 5769 5768 5767 5766 5765 5764 5763 5763 5762 5762 5763 5763 5763 5763 5763 5763 5763 5763 5763 5762 5762 5763 5763 5762 5763 5763 5763 5764 5764 5765 5766 5767 5768 5769 5770 5770
5764 5762 5761 5760 5759 5758 5757 5756 5756 5755 5755 5755 5755 5755 5755 5756 5755 5756 5755 5755 5755 5755 5754 5754 5754 5754 5755 5756 5756 5757 5757 5758 5759 5760 5761 5762 5763 5763
5756 5755 5753 5752 5751 5750 5748 5748 5748 5747 5747 5747 5747 5747 5748 5748 5748 5748 5748 5748 5748 5748 5748 5747 5747 5747 5747 5748 5749 5750 5750 5751 5752 5753 5754 5755 5755 5756
5748 5747 5745 5744 5743 5742 5741 5740 5739 5739 5739 5739 5739 5740 5740 5741 5741 5741 5741 5741 5741 5741 5740 5740 5740 5740 5740 5741 5742 5743 5743 5744 5745 5746 5747 5748 5748 5749
5739 5738 5737 5736 5735 5735 5734 5732 5732 5731 5731 5731 5732 5733 5733 5734 5734 5734 5734 5734 5734 5733 5733 5733 5733 5733 5734 5734 5735 5736 5737 5738 5738 5739 5740 5741 5741 5742
5731 5730 5729 5728 5728 5727 5726 5725 5724 5724 5724 5725 5725 5726 5726 5726 5726 5727 5727 5726 5726 5726 5726 5726 5726 5726 5727 5727 5728 5729 5730 5731 5732 5732 5733 5734 5735 5736
5723 5722 5722 5721 5720 5720 5719 5718 5718 5717 5717 5718 5718 5719 5719 5719 5720 5720 5720 5720 5719 5719 5720 5720 5720 5720 5721 5721 5721 5722 5723 5724 5725 5726 5727 5727 5728 5729
5716 5715 5714 5713 5713 5712 5711 5711 5711 5711 5711 5711 5712 5712 5712 5713 5713 5713 5713 5713 5713 5714 5713 5713 5714 5714 5715 5715 5716 5716 5716 5717 5717 5718 5719 5720 5721 5722
5709 5708 5707 5706 5706 5705 5705 5704 5704 5704 5704 5704 5705 5706 5706 5706 5706 5707 5707 5707 5707 5707 5707 5707 5707 5708 5708 5709 5709 5709 5710 5710 5711 5711 5712 5713 5714 5715
5701 5701 5701 5700 5699 5698 5698 5698 5698 5698 5698 5698 5699 5699 5699 5699 5700 5700 5700 5700 5701 5701 5701 5701 5701 5702 5702 5703 5703 5703 5703 5703 5704 5705 5705 5706 5707 5708
5694 5694 5694 5693 5693 5692 5692 5692 5691 5691 5691 5692 5692 5692 5692 5693 5693 5693 5694 5694 5694 5694 5694 5695 5695 5695 5694 5695 5696 5696 5696 5696 5697 5698 5699 5699 5700 5701
5687 5687 5687 5686 5686 5686 5685 5685 5685 5685 5685 5686 5686 5686 5686 5686 5686 5687 5687 5687 5687 5687 5687 5687 5687 5687 5688 5688 5689 5689 5690 5690 5690 5691 5691 5692 5693 5693
5680 5680 5680 5680 5680 5679 5679 5679 5679 5678 5679 5679 5680 5680 5680 5680 5680 5680 5680 5680 5680 5680 5680 5680 5680 5680 5680 5681 5682 5682 5682 5683 5683 5684 5685 5684 5685 5686